Regional Weather Roundup
Issued by NWS Wakefield, VA

Home | Current Version | Previous Version | Graphics & Text | Print | Product List | Glossary On
Versions: 1 2 3 4 5 6 7 8 9 10 11 12 13 14 15 16 17 18 19 20 21 22 23 24 25 26 27 28
000
ASUS41 KAKQ 212015
RWRAKQ

REGIONAL WEATHER ROUNDUP
NATIONAL WEATHER SERVICE WAKEFIELD VA
400 PM EDT SAT OCT 21 2017

Note: "fair" indicates few or no clouds below 12,000 feet with no
significant weather and/or obstructions to visibility. * = Denotes
station may not report precipitation (e.g., rain,snow,etc.),
thunder or fog.

VAZ042-051-052>054-056-212100-
NORTHERN VIRGINIA

CITY           SKY/WX    TMP DP  RH WIND       PRES   REMARKS
WASH NATIONAL  PTSUNNY   77  43  29 S3        30.32R
DULLES         CLOUDY    76  44  32 VRB5      30.31S
FORT BELVOIR   SUNNY     76  44  31 CALM      30.31S
QUANTICO       SUNNY     74  50  42 CALM      30.32S
FREDERICKSBRG* SUNNY     78  44  29 E5        30.30S
STAFFORD*      SUNNY     76  40  27 E6        30.35S
WARRENTON      SUNNY     78  34  20 CALM      30.30S
CULPEPER*      SUNNY     78  41  27 E3        30.31S
MANASSAS*      SUNNY     76  44  32 SE9       30.31S
LEESBURG*      CLOUDY    79  46  31 SE7       30.32S
WINCHESTER     SUNNY     72  46  40 E5        30.30S
FRONT ROYAL*   CLEAR     73  48  40 E3        30.29S
LURAY*         CLEAR     77  46  33 SW3       30.29S
$$

VAZ048-049-060>072-079>083-212100-
CENTRAL AND SOUTH CENTRAL VIRGINIA

CITY           SKY/WX    TMP DP  RH WIND       PRES   REMARKS
RICHMOND       PTSUNNY   76  49  38 E5        30.31S
CHESTERFIELD*  NOT AVBL
PETERSBURG*    SUNNY     77  49  37 N3        30.31S
HANOVER        SUNNY     76  47  35 E3        30.32S
TAPPAHANNOCK*  SUNNY     79  26  14 NE3       30.32S
QUINTON*       FAIR      75  50  41 CALM      30.31S
CHARLOTTSVILLE SUNNY     78  49  35 VRB5      30.30S
GORDONSVILLE*  CLEAR     76  49  38 CALM      30.30S
ORANGE*        SUNNY     73  46  38 CALM      30.30S
LOUISA*        SUNNY     75  48  38 CALM      30.30S
BUMPASS*       FAIR      74  48  39 SW9       30.31S
FARMVILLE*     SUNNY     80  51  36 CALM      30.29S
CREWE*         FAIR      78  53  42 CALM      30.30S
FORT PICKETT*  FAIR      77  52  41 CALM      30.31R
CHASE CITY*    FAIR      78  53  42 SE3       30.31R
CLARKSVILLE*   FAIR      75  52  43 CALM      30.30S
SOUTH HILL*    SUNNY     76  54  45 CALM      30.36S
LAWRENCEVILLE* FAIR      78  51  37 CALM      30.30S
EMPORIA*       SUNNY     77  52  41 CALM      30.32S
$$

VAZ088>098-212100-
SOUTHEAST VIRGINIA

CITY           SKY/WX    TMP DP  RH WIND       PRES   REMARKS
NORFOLK        SUNNY     74  47  38 NE7       30.31S
VIRGINIA BEACH MOSUNNY   72  49  44 E8        30.31S
NORFOLK NAVAL  PTSUNNY   74  51  44 NE8       30.33S
WEST POINT*    SUNNY     76  49  38 S3        30.33R
SALUDA*        FAIR      71  57  61 E5        30.32S
NEWPORT NEWS   SUNNY     74  52  46 E7        30.32R
LANGLEY AFB    SUNNY     74  49  41 E5        30.32R
FORT EUSTIS    SUNNY     79  58  49 SE7       30.29R
WILLIAMSBURG*  SUNNY     79  57  47 SE6       30.32S
HR EXEC AP*    NOT AVBL
FRANKLIN*      SUNNY     77  52  41 CALM      30.30S
US460-WAKEFLD  SUNNY     77  51  40 VRB3      30.30S
$$

VAZ020-022-025-037-045-212100-
WEST CENTRAL AND SOUTHWEST VIRGINIA

CITY           SKY/WX    TMP DP  RH WIND       PRES   REMARKS
STAUNTON*      CLOUDY    75  49  40 S6        30.32S
WAYNESBORO*    CLOUDY    72  53  51 SE9       30.32S
HOT SPRINGS VA CLOUDY    64  46  50 CALM      30.40R
LYNCHBURG      CLOUDY    75  49  39 S7        30.31S
DANVILLE       CLOUDY    77  54  44 CALM      30.30F
SOUTH BOSTON*  FAIR      79  49  35 CALM      30.30S
MARTINSVILLE   SUNNY     75  50  41 CALM      30.33S
ROANOKE        PTSUNNY   74  52  46 E7        30.32S
BLACKSBURG     MOSUNNY   76  50  40 E3        30.35S
DUBLIN*        MOSUNNY   75  45  33 CALM      30.33S
MARION*        CLOUDY    74  36  25 E5        30.35S
HILLSVILLE*    SUNNY     71  42  35 CALM      30.34S
RICHLANDS*     FAIR     N/A N/A N/A CALM      30.33S
WISE*          MOSUNNY   72  41  33 S3        30.33S
ABINGDON*      CLOUDY    76  41  27 E3        30.30S
$$

MDZ021>025-VAZ099-100-212100-
SOUTHERN MARYLAND AND THE DELMARVA PENINSULA

CITY           SKY/WX    TMP DP  RH WIND       PRES   REMARKS
PATUXENT RIVER MOSUNNY   73  42  32 SE5       30.32R
BAY BRIDGE APT SUNNY     70  52  52 W6        30.32S
LEONARDTOWN    NOT AVBL
DOVER          SUNNY     74  46  37 SE6       30.31R
GEORGETOWN     SUNNY     76  46  34 SE5       30.32R
EASTON         PTSUNNY   77  39  25 CALM      30.35
CAMBRIDGE      SUNNY     75  41  29 SE7       30.31S
SALISBURY      SUNNY     76  48  37 SE5       30.31S
OCEAN CITY     SUNNY     69  59  70 E6        30.33S
WALLOPS ISLAND SUNNY     72  55  55 MISG      30.33R
ACCOMACK*      SUNNY     74  46  36 CALM      30.32S
$$

NCZ012>017-030>032-212100-
NORTH CENTRAL AND EASTERN NORTH CAROLINA

CITY           SKY/WX    TMP DP  RH WIND       PRES   REMARKS
ROANOKE RAPIDS FAIR      77  54  44 CALM      30.30S
RALEIGH        CLOUDY    77  50  38 CALM      30.31S
ELIZABETH CITY SUNNY     75  55  49 E9        30.31S
AHOSKIE*       SUNNY     75  54  47 CALM      30.30F
EDENTON*       SUNNY     76  58  52 CALM      30.31S
CURRITUCK*     SUNNY     72  56  56 E6        30.32S
KILL DEVIL HLS SUNNY     71  56  58 CALM      30.31S
MANTEO         SUNNY    N/A N/A N/A E9        30.32S
CAPE HATTERAS  SUNNY     74  60  61 NE7       30.31S
TARBORO*       NOT AVBL
GOLDSBORO      SUNNY     79  50  35 SE5       30.28S HAZE
WASHINGTON     SUNNY     78  55  45 S5        30.30S
GREENVILLE     SUNNY     79  54  41 S3        30.30F
NEW BERN       SUNNY     77  55  46 SE7       30.31S
WILMINGTON     SUNNY     76  58  53 E7        30.29S
$$

VAZ048-212100-
ELSEWHERE

CITY           SKY/WX    TMP DP  RH WIND       PRES   REMARKS
HARRISBURG PA  CLOUDY    71  52  50 CALM      30.30S
BALTIMORE      PTSUNNY   74  44  34 E8        30.32R
ANNAPOLIS      SUNNY     72  53  51 SE3       30.32S
ANDREWS AFB    MOSUNNY   74  42  31 CALM      30.31S
PHILADELPHIA   PTSUNNY   78  40  25 CALM      30.31S
HENDERSON NC   CLOUDY    75  51  43 CALM      30.31S
GREENSBORO     CLOUDY    75  49  39 S3        30.30S
ROCKY MOUNT    SUNNY     79  55  43 CALM      30.30S
$$

VAZ100-212100-
MARINE

STATION/POSITION TIME  TEMP    WIND        PRES    WAVE   SWELL
                       AIR SEA DIR/SP/G            HT/PER HT/PER
                 (UTC) (F)     (DEG/KT/KT) (MB)    (FT/S) (FT/S)
BRANDYWINE LGT   1942   68     150/  5/  6 1027.0F
CAPE MAY NJ      1948   71 65  200/  7/  7 1026.2F
LEWES DE         1942   72 66  150/  5/  6 1026.4S
15NM E FENWICK I 1950   68 70   80/  4/  4 1027.3S   2/ 8   2/ 8
OCEAN-CITY-INLET 1948   69 68  110/  4/  5 1027.2F
WACHAPREAGUE VA  1948   70 69   90/  5/  7 1026.8R
THOMAS POINT MD  2000   69 68  230/  3/  3   N/A
GOOSES REEF MD   2000   71 70   20/  2/  2 1034.2    0
COVE POINT MD    1948   69      40/  2/  3 1027.4R
SOLOMONS ISLAND  1942   70 70   80/  4/  5 1026.3R
BISHOPS HEAD MD  1948   69 68  260/  5/  5 1027.1R
PINEY POINT MD   1906          180/  6/  7   N/A
POTOMAC MD       2000   70 70  110/  4/  4 1026.3    0
CAMBRIDGE MD     1942   73 68              1027.4R
LEWISETTA VA     1948   68 66  100/  7/  8 1026.6R
RAPPAHANNOCK LGT 1948          330/  3/  5 1027.4R
STINGRAY PT      2000   70 69   70/  4/  6 1027.1    0
YORK RVR RNG VA  1948   72      90/  3/  4 1027.2R
YORKTOWN VA      1948   70 70   80/  7/  8 1026.3R
JAMESTOWN VA     2000      71  100/  6/  8   N/A     0
DOMINION TERM VA 1948   72      50/  2/  5 1026.8R
KIPTOPEKE VA     1942      67  230/  3/  4   N/A
CAPE HENRY VA    1948   70      90/  5/  6   N/A
WILLOUBY STN VA  1942   69      80/  6/  8 1026.7R
S CRANEY ISL VA  1948   73      40/  5/  6 1026.2S
CAPE HENRY BUOY  2000      71                N/A     2/ 8
1ST LANDING BUOY 2000   70 70              1026.6    1
CAPE CHARLES BUO 1951      71                N/A     2/ 8
64NM E OF VA BCH 1950   68 70   30/  4/  6 1027.4R   3/ 8   3/ 8
DUCK PIER NC     1948   71 70   70/  7/  8 1026.4R
44100 DUCK FRF   1905      71                N/A     2/ 8
44056 DUCK FRF   1930      71                N/A     2/ 8
OREGON INLET NC  1942   71 70   50/  5/  7 1026.5R
HATTERAS NC      1942   71 72   30/  9/ 11 1026.3R
DIAMOND SHLS NC  1950   73 81   20/ 10/ 12 1026.0R   3/ 8   3/ 8
CAPE LOOKOUT NC  2000   72      50/ 11/ 12 1025.8S
$$




USA.gov is the U.S. government's official web portal to all federal, state and local government web resources and services.